Powrót do katalogu

THOR ABLESTAR DEB

AktywnyLEO
NORAD 5785·DEBRIS·🇺🇸 United States

Wystrzelony Jun 29, 1961 z Cape Canaveral Space Force Station

Loading…

Następne Przeloty (najbliższe 24 godziny)

TLE

ŚwieżeSource: Space-Track

Epoka: Sep 14, 2026, 05:00 UTC

1 05785U 61015JZ  26257.20862874  .00000277  00000-0  29388-3 0  9996
2 05785  65.6400 168.5435 0147234 288.7723  69.7417 13.84869617298341

Śledź THOR ABLESTAR DEB w czasie rzeczywistym z AllMySat

Download on the App Store